This is the latest recevied weather packets stored in our database for station/object AD8AK. If no packets are shown the sender has not sent any weather packets the latest 10 day(s).
| Time | Temp. | Humidity | Pressure | Rain* | Wind** | Luminosity | Snow |
|---|---|---|---|---|---|---|---|
| 1777833310 | 16.11° C | 37% | 1014.4 hPa | 0 mm | - | - | - |
| 1777833007 | 16.11° C | 35% | 1014.1 hPa | 0 mm | - | - | - |
| 1777832706 | 16.11° C | 37% | 1014.2 hPa | 0 mm | - | - | - |
| 1777832403 | 16.11° C | 37% | 1014.2 hPa | 0 mm | - | - | - |
| 1777832100 | 16.11° C | 36% | 1014.3 hPa | 0 mm | - | - | - |
| 1777831796 | 15.56° C | 37% | 1014.4 hPa | 0 mm | - | - | - |
| 1777831494 | 16.11° C | 35% | 1014.5 hPa | 0 mm | - | - | - |
| 1777831191 | 16.11° C | 36% | 1014.4 hPa | 0 mm | - | - | - |
| 1777830889 | 16.11° C | 34% | 1014.5 hPa | 0 mm | - | - | - |
| 1777830585 | 16.11° C | 34% | 1014.7 hPa | 0 mm | - | - | - |
| 1777830284 | 15.56° C | 34% | 1014.4 hPa | 0 mm | - | - | - |
| 1777829984 | 15.56° C | 36% | 1014.8 hPa | 0 mm | - | - | - |
| 1777829680 | 16.11° C | 35% | 1014.8 hPa | 0 mm | - | - | - |
| 1777829377 | 15.56° C | 35% | 1014.7 hPa | 0 mm | - | - | - |
| 1777829074 | 15.56° C | 36% | 1014.8 hPa | 0 mm | - | - | - |
| 1777828770 | 16.11° C | 35% | 1014.8 hPa | 0 mm | - | - | - |
| 1777828467 | 16.11° C | 33% | 1014.7 hPa | 0 mm | - | - | - |
| 1777828165 | 15.56° C | 36% | 1014.9 hPa | 0 mm | - | - | - |
| 1777827861 | 15.56° C | 36% | 1014.9 hPa | 0 mm | - | - | - |
| 1777827558 | 15.56° C | 37% | 1015.1 hPa | 0 mm | - | - | - |
| 1777827255 | 15.56° C | 35% | 1015.1 hPa | 0 mm | - | - | - |
| 1777826951 | 15.56° C | 37% | 1015.2 hPa | 0 mm | - | - | - |
| 1777826649 | 15° C | 38% | 1015.1 hPa | 0 mm | - | - | - |
| 1777826345 | 15.56° C | 41% | 1015.3 hPa | 0 mm | - | - | - |
| 1777826043 | 15° C | 40% | 1015.6 hPa | 0 mm | - | - | - |
* Rain latest hour (hover to see other rain measurements)
** Current wind speed in m/s (hover to see current wind gust speed)